Hourly Data Report for June 04, 2021

GAMETI
NORTHWEST TERRITORIES
Current Station Operator: ECCC - MSC

64°06'42.078" N
117°19'40.086" W
221.00 m
2203359
71165
WYH

Download Data

Hourly Data (June 2021)
Hourly Data Report for June 4, 2021
TIME
LST
Temp Definition
°C
Dew Point Definition
°C
Rel Hum Definition
%
Precip. Amount Definition
mm

Wind Dir Definition
10's deg

Wind Spd Definition
km/h
Visibility Definition
km
Stn Press Definition
kPa
Hmdx Definition


Wind Chill Definition


Weather Definition


00:00 5.9 5.2 96 LegendMM 7 11   97.11     LegendNANA
01:00 5.6 4.9 95 LegendMM 6 8   97.16     LegendNANA
02:00 5.3 4.7 96 LegendMM 7 7   97.14     LegendNANA
03:00 4.8 4.2 96 LegendMM 7 14   97.09     LegendNANA
04:00 4.4 4.0 97 LegendMM 9 9   97.10     LegendNANA
05:00 4.4 4.0 97 LegendMM 4 5   97.10     LegendNANA
06:00 4.6 4.2 98 LegendMM 8 5   97.08     LegendNANA
07:00 4.8 4.5 98 LegendMM 10 4   97.06     LegendNANA
08:00 5.5 5.2 98 LegendMM 21 3   97.04     LegendNANA
09:00 6.0 5.6 97 LegendMM 17 2   97.02     LegendNANA
10:00 7.1 6.1 93 LegendMM 17 5   97.02     LegendNANA
11:00 7.4 6.6 95 LegendMM 16 3   97.03     LegendNANA
12:00 9.0 7.5 90 LegendMM 12 6   97.04     LegendNANA
13:00 11.6 9.0 84 LegendMM 29 7   97.06     LegendNANA
14:00 12.0 8.1 77 LegendMM 32 8   97.08     LegendNANA
15:00 13.0 8.2 72 LegendMM 28 11   97.11     LegendNANA
16:00 14.3 6.5 59 LegendMM 28 12   97.10     LegendNANA
17:00 14.4 7.0 61 LegendMM 35 5   97.08     LegendNANA
18:00 15.3 6.5 56 LegendMM 32 7   97.06     LegendNANA
19:00 15.6 6.4 54 LegendMM 28 6   97.07     LegendNANA
20:00 14.5 5.8 56 LegendMM 32 3   97.05     LegendNANA
21:00 12.6 6.4 66 LegendMM 22 6   97.07     LegendNANA
22:00 8.9 4.3 73 LegendMM 26 1   97.10     LegendNANA
23:00 8.8 6.6 86 LegendMM 22 3   97.10     LegendNANA

Notes on Data Quality.

Legend

  • E = Estimated
  • M = Missing
  • NA = Not Available*
  • [empty] = Indicates an unobserved value
Date modified: